ASA1461 LCLK-LLBG

Flight info

Callsign ASA1461
Flight time 0h 36m
Altitude 25000
Route EMEDA DCT TUZIB L189 ZUKKO
Aircraft B739/M-SDE2E3FGHIRWXY/LB1

Departure

Time 2026-05-06 12:00
Airport Larnaca International Airport (LCLK)

Arrival

Time 2026-05-06 12:37
Airport Ben Gurion International Airport (LLBG)
Time Latitude Longitude Altitude Speed Heading
2026-05-06 11:12 34.88525 33.63107 14 ft 0 kts 226°
2026-05-06 11:58 34.88501 33.63080 15 ft 11 kts 212°
2026-05-06 11:58 34.88429 33.63118 15 ft 13 kts 135°
2026-05-06 11:58 34.88364 33.63212 15 ft 13 kts 99°
2026-05-06 11:59 34.88424 33.63318 13 ft 16 kts 49°
2026-05-06 11:59 34.88412 33.63423 13 ft 14 kts 134°
2026-05-06 11:59 34.88338 33.63509 13 ft 14 kts 151°
2026-05-06 11:59 34.88255 33.63470 12 ft 12 kts 225°
2026-05-06 12:00 34.88117 33.63305 13 ft 69 kts 223°
2026-05-06 12:00 34.87523 33.62583 85 ft 160 kts 224°
2026-05-06 12:00 34.86787 33.61607 1183 ft 172 kts 224°
2026-05-06 12:00 34.85869 33.60476 1936 ft 209 kts 223°
2026-05-06 12:01 34.84771 33.59181 2900 ft 231 kts 223°
2026-05-06 12:01 34.83539 33.57908 3965 ft 248 kts 208°
2026-05-06 12:01 34.81846 33.57488 5145 ft 260 kts 174°
2026-05-06 12:01 34.80210 33.58340 6370 ft 272 kts 144°
2026-05-06 12:02 34.78767 33.59836 7654 ft 279 kts 142°
2026-05-06 12:02 34.77239 33.61246 8893 ft 285 kts 146°
2026-05-06 12:02 34.75626 33.62648 10101 ft 292 kts 146°
2026-05-06 12:02 34.73963 33.64087 11176 ft 303 kts 146°
2026-05-06 12:03 34.72175 33.65620 11820 ft 328 kts 146°
2026-05-06 12:03 34.70285 33.67234 12829 ft 340 kts 147°
2026-05-06 12:03 34.68351 33.68882 13918 ft 348 kts 147°
2026-05-06 12:03 34.66374 33.70564 15000 ft 355 kts 147°
2026-05-06 12:04 34.64344 33.72258 16055 ft 361 kts 150°
2026-05-06 12:04 34.62178 33.73810 17084 ft 365 kts 156°
2026-05-06 12:04 34.59868 33.75022 18086 ft 368 kts 163°
2026-05-06 12:04 34.57467 33.76099 19058 ft 373 kts 163°
2026-05-06 12:05 34.55014 33.77214 20001 ft 379 kts 163°
2026-05-06 12:05 34.52565 33.78329 20903 ft 384 kts 164°
2026-05-06 12:05 34.50048 33.79394 21793 ft 387 kts 167°
2026-05-06 12:05 34.47474 33.80145 22952 ft 377 kts 176°
2026-05-06 12:06 34.44941 33.80454 23925 ft 368 kts 182°
2026-05-06 12:06 34.42355 33.80661 24138 ft 374 kts 181°
2026-05-06 12:06 34.39790 33.80892 24065 ft 372 kts 181°
2026-05-06 12:06 34.37218 33.81130 24077 ft 369 kts 181°
2026-05-06 12:07 34.34684 33.81344 24077 ft 369 kts 182°
2026-05-06 12:07 34.32108 33.81553 24077 ft 370 kts 182°
2026-05-06 12:07 34.29576 33.81758 24076 ft 370 kts 182°
2026-05-06 12:07 34.26993 33.81965 24074 ft 370 kts 182°
2026-05-06 12:08 34.24465 33.82165 24075 ft 369 kts 182°
2026-05-06 12:08 34.21893 33.82367 24076 ft 369 kts 182°
2026-05-06 12:08 34.19348 33.82566 24076 ft 369 kts 182°
2026-05-06 12:08 34.16795 33.82765 24074 ft 369 kts 182°
2026-05-06 12:09 34.14245 33.82963 24074 ft 369 kts 182°
2026-05-06 12:09 34.11691 33.83161 24074 ft 369 kts 182°
2026-05-06 12:09 34.09133 33.83359 24076 ft 369 kts 182°
2026-05-06 12:09 34.06573 33.83557 24076 ft 369 kts 182°
2026-05-06 12:10 34.04037 33.83752 24074 ft 369 kts 182°
2026-05-06 12:10 34.01479 33.83949 24074 ft 369 kts 182°
2026-05-06 12:10 33.98924 33.84142 24075 ft 369 kts 182°
2026-05-06 12:10 33.96369 33.84334 24075 ft 369 kts 182°
2026-05-06 12:11 33.93811 33.84528 24075 ft 369 kts 182°
2026-05-06 12:11 33.91259 33.84720 24074 ft 369 kts 182°
2026-05-06 12:11 33.88712 33.84912 24074 ft 369 kts 182°
2026-05-06 12:11 33.86158 33.85105 24075 ft 369 kts 182°
2026-05-06 12:12 33.83586 33.85299 24074 ft 369 kts 182°
2026-05-06 12:12 33.81036 33.85492 24073 ft 369 kts 182°
2026-05-06 12:12 33.78484 33.85692 24074 ft 369 kts 182°
2026-05-06 12:12 33.75932 33.85893 24075 ft 369 kts 182°
2026-05-06 12:13 33.73373 33.86093 24074 ft 369 kts 182°
2026-05-06 12:13 33.70839 33.86291 24073 ft 369 kts 182°
2026-05-06 12:13 33.68267 33.86491 24074 ft 369 kts 182°
2026-05-06 12:13 33.65715 33.86690 24074 ft 369 kts 182°
2026-05-06 12:14 33.63169 33.86888 24074 ft 369 kts 182°
2026-05-06 12:14 33.60634 33.87086 24073 ft 369 kts 182°
2026-05-06 12:14 33.58057 33.87286 24073 ft 369 kts 182°
2026-05-06 12:14 33.55521 33.87484 24075 ft 369 kts 182°
2026-05-06 12:15 33.52951 33.87683 24075 ft 369 kts 182°
2026-05-06 12:15 33.50414 33.87880 24073 ft 369 kts 182°
2026-05-06 12:15 33.47845 33.88080 24074 ft 368 kts 182°
2026-05-06 12:15 33.45326 33.88275 24075 ft 368 kts 182°
2026-05-06 12:16 33.42771 33.88473 24074 ft 368 kts 182°
2026-05-06 12:16 33.40212 33.88671 24073 ft 368 kts 182°
2026-05-06 12:16 33.37672 33.88868 24073 ft 368 kts 182°
2026-05-06 12:16 33.35134 33.89064 24074 ft 368 kts 182°
2026-05-06 12:17 33.32577 33.89262 24075 ft 368 kts 182°
2026-05-06 12:17 33.30015 33.89460 24073 ft 368 kts 182°
2026-05-06 12:17 33.27458 33.89658 24072 ft 368 kts 182°
2026-05-06 12:17 33.24918 33.89854 24074 ft 368 kts 182°
2026-05-06 12:18 33.22380 33.90049 24075 ft 368 kts 182°
2026-05-06 12:18 33.19832 33.90245 24075 ft 368 kts 182°
2026-05-06 12:18 33.17268 33.90437 24074 ft 368 kts 182°
2026-05-06 12:18 33.14737 33.90622 24073 ft 367 kts 182°
2026-05-06 12:19 33.12168 33.90811 24074 ft 368 kts 182°
2026-05-06 12:19 33.09634 33.90998 24075 ft 368 kts 182°
2026-05-06 12:19 33.07096 33.91185 24074 ft 368 kts 183°
2026-05-06 12:19 33.04529 33.91374 24073 ft 369 kts 183°
2026-05-06 12:20 33.01978 33.91562 24074 ft 370 kts 184°
2026-05-06 12:20 32.99414 33.91750 24075 ft 370 kts 184°
2026-05-06 12:20 32.96846 33.91939 24074 ft 371 kts 185°
2026-05-06 12:20 32.94275 33.92127 24073 ft 372 kts 185°
2026-05-06 12:21 32.91700 33.92316 24074 ft 372 kts 185°
2026-05-06 12:21 32.89144 33.92506 23755 ft 368 kts 185°
2026-05-06 12:21 32.86605 33.92694 23252 ft 366 kts 185°
2026-05-06 12:21 32.84116 33.92877 22777 ft 363 kts 184°
2026-05-06 12:22 32.81613 33.93061 22281 ft 360 kts 184°
2026-05-06 12:22 32.79112 33.93244 21785 ft 358 kts 184°
2026-05-06 12:22 32.76654 33.93424 21296 ft 355 kts 184°
2026-05-06 12:22 32.74219 33.93602 20807 ft 353 kts 184°
2026-05-06 12:23 32.71797 33.93779 20321 ft 351 kts 183°
2026-05-06 12:23 32.69375 33.93956 19833 ft 348 kts 183°
2026-05-06 12:23 32.66965 33.94132 19349 ft 346 kts 183°
2026-05-06 12:23 32.64574 33.94306 18874 ft 344 kts 182°
2026-05-06 12:24 32.62201 33.94479 18408 ft 341 kts 182°
2026-05-06 12:24 32.59869 33.94649 17941 ft 339 kts 182°
2026-05-06 12:24 32.57541 33.95060 17467 ft 344 kts 170°
2026-05-06 12:24 32.55342 33.96267 16971 ft 352 kts 149°
2026-05-06 12:25 32.53537 33.98237 16470 ft 357 kts 137°
2026-05-06 12:25 32.51861 34.00387 15960 ft 356 kts 137°
2026-05-06 12:25 32.50171 34.02470 15461 ft 354 kts 137°
2026-05-06 12:25 32.48453 34.04578 14955 ft 353 kts 137°
2026-05-06 12:26 32.46763 34.06675 14452 ft 352 kts 136°
2026-05-06 12:26 32.45085 34.08763 13954 ft 350 kts 136°
2026-05-06 12:26 32.43422 34.10835 13464 ft 349 kts 135°
2026-05-06 12:26 32.41942 34.13071 12970 ft 349 kts 126°
2026-05-06 12:27 32.40604 34.15474 12468 ft 347 kts 125°
2026-05-06 12:27 32.39261 34.17834 11970 ft 345 kts 126°
2026-05-06 12:27 32.37930 34.20144 11480 ft 343 kts 126°
2026-05-06 12:27 32.36589 34.22483 10984 ft 341 kts 126°
2026-05-06 12:28 32.35276 34.24776 10524 ft 338 kts 126°
2026-05-06 12:28 32.33960 34.27072 10272 ft 328 kts 126°
2026-05-06 12:28 32.32706 34.29260 10037 ft 320 kts 126°
2026-05-06 12:28 32.31464 34.31414 9577 ft 319 kts 126°
2026-05-06 12:29 32.30212 34.33587 9162 ft 317 kts 126°
2026-05-06 12:29 32.28995 34.35699 8766 ft 314 kts 125°
2026-05-06 12:29 32.27771 34.37823 8370 ft 312 kts 126°
2026-05-06 12:29 32.26546 34.39946 7974 ft 309 kts 125°
2026-05-06 12:30 32.25351 34.42017 7586 ft 307 kts 125°
2026-05-06 12:30 32.24145 34.44105 7194 ft 305 kts 125°
2026-05-06 12:30 32.22961 34.46155 6809 ft 303 kts 126°
2026-05-06 12:30 32.21778 34.48196 6426 ft 300 kts 125°
2026-05-06 12:31 32.20609 34.50209 6047 ft 298 kts 125°
2026-05-06 12:31 32.19443 34.52217 5667 ft 296 kts 125°
2026-05-06 12:31 32.18290 34.54201 5307 ft 294 kts 126°
2026-05-06 12:31 32.17144 34.56173 5033 ft 288 kts 126°
2026-05-06 12:32 32.16049 34.58127 4765 ft 283 kts 122°
2026-05-06 12:32 32.15053 34.60122 4519 ft 277 kts 121°
2026-05-06 12:32 32.14084 34.62053 4279 ft 272 kts 122°
2026-05-06 12:32 32.13128 34.63939 3986 ft 269 kts 122°
2026-05-06 12:33 32.12162 34.65845 3677 ft 267 kts 122°
2026-05-06 12:33 32.11217 34.67710 3389 ft 264 kts 122°
2026-05-06 12:33 32.10280 34.69563 3117 ft 261 kts 122°
2026-05-06 12:33 32.09358 34.71383 2847 ft 252 kts 122°
2026-05-06 12:34 32.08490 34.73064 2647 ft 235 kts 123°
2026-05-06 12:34 32.07664 34.74662 2441 ft 222 kts 122°
2026-05-06 12:34 32.06860 34.76212 2178 ft 222 kts 121°
2026-05-06 12:34 32.06070 34.77738 1885 ft 212 kts 123°
2026-05-06 12:35 32.05323 34.79174 1619 ft 204 kts 123°
2026-05-06 12:35 32.04583 34.80600 1330 ft 205 kts 122°
2026-05-06 12:35 32.03836 34.82035 1062 ft 205 kts 122°
2026-05-06 12:35 32.03104 34.83446 781 ft 203 kts 122°
2026-05-06 12:36 32.02399 34.84800 512 ft 179 kts 122°
2026-05-06 12:36 32.01818 34.85921 300 ft 144 kts 123°
2026-05-06 12:36 32.01331 34.86845 122 ft 124 kts 122°
2026-05-06 12:36 32.00963 34.87550 121 ft 67 kts 121°
2026-05-06 12:37 32.00808 34.87848 122 ft 29 kts 122°
2026-05-06 12:37 32.00699 34.87993 124 ft 16 kts 185°
2026-05-06 12:37 32.00633 34.87955 125 ft 0 kts 211°